Home   Weather   Tuba City   Past weeks

Flag for USA Past Weather in Tuba City, Arizona, USA — Yesterday and Last 2 Weeks

Now
63 °F

Cloudy.


Feels Like: 63 °F
Forecast: 56 / 73 °F
Wind: 6 mph from South

Location: Grand Canyon National Park Airport

Current Time: Sep 29, 2016 at 12:52:22 PM

Latest Report: Sep 29, 2016 at 11:54 AM


Visibility: 10 mi

Pressure: 30.22 "Hg (25.30 "Hg at 1510m altitude)

Humidity: 70%

Dew Point: 53 °F

Location of Tuba CityLocation

Past Weather in Tuba City — Graph

°F

Tuba City Temperature Yesterday

Maximum temperature yesterday: 69 °F (at 1:54 PM)
Minimum temperature yesterday: 44 °F (at 5:54 AM)
Average temperature yesterday: 57 °F

High & Low Weather Summary for the Past Weeks

 TemperatureHumidityPressure
High86 °F (Sep 19, 2:54 PM)93% (Sep 20, 6:54 PM)30.38 "Hg (Sep 20, 6:54 PM)
Low30 °F (Sep 16, 5:54 AM)5% (Sep 15, 4:54 PM)29.65 "Hg (Sep 22, 8:54 PM)
Average56 °F49%30.06 "Hg
* Reported Sep 14 10:54 AM — Sep 29 10:54 AM, Tuba City, Weather by CustomWeather, © 2016

Note: Actual official high and low records may vary slightly from our data, if they occured in-between our weather recording intervals... More about our weather records

Advertising

Tuba City Weather History for the Previous 24 Hours

Scroll right to see more
 ConditionsComfort  
Time TempWeatherWind HumidityBarometerVisibility
10:54 AM
Thu, Sep 29
61 °FBroken clouds.3 mph75%30.22 "Hg10 mi
9:54 AM57 °FOvercast.No wind83%30.23 "Hg10 mi
8:54 AM56 °FBroken clouds.5 mph84%30.22 "Hg10 mi
7:54 AM55 °FMore clouds than sun.5 mph87%30.20 "Hg10 mi
6:54 AM55 °FMostly cloudy.3 mph83%30.17 "Hg10 mi
5:54 AM55 °FOvercast.3 mph83%30.15 "Hg10 mi
4:54 AM55 °FMostly cloudy.6 mph87%30.13 "Hg10 mi
3:54 AM55 °FOvercast.6 mph87%30.13 "Hg10 mi
2:54 AM54 °FLight rain. Fog.7 mph86%30.15 "Hg6 mi
1:54 AM54 °FMostly cloudy.No wind90%30.12 "Hg10 mi
12:54 AM53 °FPartly cloudy.No wind89%30.13 "Hg10 mi
11:54 PM
Wed, Sep 28
54 °FPassing clouds.No wind90%30.15 "Hg10 mi
10:54 PM54 °FPartly cloudy.6 mph90%30.13 "Hg10 mi
9:54 PM55 °FLight rain. Mostly cloudy.12 mph87%30.12 "Hg10 mi
8:54 PM54 °FPartly cloudy.6 mph90%30.12 "Hg10 mi
7:54 PM56 °FLight rain. Partly cloudy.No wind87%30.16 "Hg10 mi
6:54 PM60 °FLight rain. More clouds than sun.5 mph69%30.13 "Hg7 mi
5:54 PM63 °FPartly sunny.6 mph63%30.10 "Hg10 mi
4:54 PM65 °FPartly sunny.10 mph54%30.08 "Hg10 mi
3:54 PM64 °FLight rain. Broken clouds.8 mph58%30.06 "Hg10 mi
2:54 PM63 °FBroken clouds.13 mph52%30.05 "Hg10 mi
1:54 PM69 °FScattered clouds.9 mph41%30.03 "Hg10 mi
12:54 PM66 °FPartly sunny.9 mph50%30.05 "Hg10 mi
Weather by CustomWeather, © 2016

See weather overviewHow to use our weather pages